This is the latest recevied weather packets stored in our database for station/object NW1E. If no packets are shown the sender has not sent any weather packets the latest 10 day(s).
| Time | Temp. | Humidity | Pressure | Rain* | Wind** | Luminosity | Snow |
|---|---|---|---|---|---|---|---|
| 1777832730 | 23.33° C | 85% | 1016.2 hPa | 0 mm | - | 635 W/m² | - |
| 1777832129 | 22.78° C | 87% | 1016.2 hPa | 0 mm | - | 512 W/m² | - |
| 1777829722 | 21.11° C | 90% | 1016.8 hPa | 0.25 mm | - | 162 W/m² | - |
| 1777829420 | 21.11° C | 90% | 1016.9 hPa | 0.25 mm | - | 230 W/m² | - |
| 1777827307 | 21.11° C | 88% | 1017.3 hPa | 0 mm | - | 141 W/m² | - |
| 1777827005 | 21.11° C | 88% | 1017.4 hPa | 0 mm | - | 201 W/m² | - |
| 1777826406 | 21.11° C | 89% | 1017.4 hPa | 0 mm | - | 204 W/m² | - |
| 1777824801 | 21.11° C | 89% | 1017.6 hPa | 0 mm | - | 238 W/m² | - |
| 1777823699 | 20.56° C | 90% | 1017.6 hPa | 0 mm | - | 255 W/m² | - |
| 1777821590 | 20° C | 92% | 1017.5 hPa | 0 mm | - | 85 W/m² | - |
| 1777819474 | 20° C | 91% | 1017.3 hPa | 0 mm | - | 69 W/m² | - |
| 1777815859 | 20° C | 92% | 1016.5 hPa | 0 mm | - | 99 W/m² | - |
| 1777813457 | 19.44° C | 92% | 1016.2 hPa | 0 mm | - | 53 W/m² | - |
| 1777812257 | 19.44° C | 93% | 1016 hPa | 0 mm | - | 42 W/m² | - |
| 1777812100 | 19.44° C | 93% | 1015.9 hPa | 0 mm | - | 46 W/m² | - |
| 1777810662 | 20° C | 93% | 1015.4 hPa | 0 mm | - | 19 W/m² | - |
| 1777809256 | 20° C | 93% | 1014.9 hPa | 0 mm | - | 35 W/m² | - |
| 1777808856 | 20.56° C | 93% | 1014.8 hPa | 0 mm | - | 16 W/m² | - |
| 1777805353 | 21.67° C | 92% | 1014.3 hPa | 0 mm | - | 0 W/m² | - |
| 1777802826 | 22.78° C | 92% | 1013.7 hPa | 0 mm | - | 0 W/m² | - |
| 1777801143 | 23.33° C | 93% | 1013.8 hPa | 0 mm | - | 0 W/m² | - |
| 1777800244 | 23.33° C | 93% | 1013.5 hPa | 0 mm | - | 0 W/m² | - |
| 1777799032 | 22.78° C | 92% | 1013.2 hPa | 0 mm | - | 0 W/m² | - |
| 1777798729 | 22.78° C | 92% | 1013.3 hPa | 0 mm | - | 0 W/m² | - |
| 1777798426 | 22.78° C | 92% | 1013.2 hPa | 0 mm | - | 0 W/m² | - |
* Rain latest hour (hover to see other rain measurements)
** Current wind speed in m/s (hover to see current wind gust speed)